Satellite: RS-40
Catalog number: 38736
Epoch time:      12228.48369154
Element set:    0025
Inclination:      082.4807 deg
RA of node:       345.7228 deg
Eccentricity:    0.0017664
Arg of perigee:   275.1527 deg
Mean anomaly:     084.7535 deg
Mean motion:   12.42645912 rev/day
Decay rate:        1.0e-07 rev/day^2
Epoch rev:           00227
Checksum:              297

/EX


_______________________________________________
Via the Keps mailing list courtesy of AMSAT-NA
http://amsat.org/mailman/listinfo/keps

--- ViaMAIL!/WC v1.60d
 * Origin: Chowdanet (401-724-4410) telnet://chowdanet.com  (1:323/120)